Temperature
11 11 11 11 11 11 11 11 11 11 11 11 11 11 11 11 10 10 10 10 10 10 10 9 9 9 9 9 9 9 9 9 9 9 9 9 9 9 9 9 8 8 9
11 11 11 11 11 11 11 11 11 11 11 10 10 10 10 10 10 10 10 10 10 10 9 9 9 9 9 9 9 9 9 9 8 8 8 8 8 9 8 8 8 8 8
10 10 10 10 10 10 10 10 10 10 10 10 10 10 10 10 10 10 9 9 9 9 9 9 9 9 9 8 8 8 8 8 8 8 8 8 8 8 8 8 8 8 8
10 10 10 10 10 10 10 10 10 10 10 9 9 9 9 9 9 9 9 9 9 9 9 8 8 8 8 8 8 8 8 8 8 8 8 8 7 7 7 7 7 7 7
9 9 9 9 9 9 9 9 9 9 9 9 9 9 9 9 9 9 9 8 8 8 8 8 8 8 8 8 8 8 8 8 8 7 7 7 7 7 7 7 7 7 7
9 9 9 9 9 9 9 9 8 8 8 8 8 8 8 8 8 8 8 8 8 8 7 7 7 7 7 7 7 8 8 8 7 7 7 7 7 7 6 6 6 6 6
8 8 8 8 8 8 8 8 8 8 8 7 7 7 7 7 7 7 7 7 7 7 7 7 7 7 7 7 7 7 7 7 7 7 7 6 6 6 6 6 6 6 6
8 8 7 7 8 8 8 7 7 7 7 7 7 6 6 6 6 7 7 7 7 7 7 6 6 6 6 6 6 7 7 7 7 6 6 6 6 6 6 6 6 6 6
7 7 7 7 7 7 7 7 7 7 7 7 6 6 6 5 5 6 6 6 6 6 6 6 6 6 6 6 6 6 6 6 6 6 6 6 6 6 5 6 5 5 5
6 7 7 7 7 7 7 7 7 6 6 6 6 6 6 5 5 5 5 5 6 6 6 5 5 5 5 5 5 6 6 6 6 6 5 5 5 5 5 5 5 5 5
6 6 6 6 6 6 6 6 6 6 6 6 6 5 5 5 5 5 4 5 5 5 5 5 5 5 5 5 5 5 5 5 5 5 5 5 5 5 5 5 5 5 5
5 5 5 6 6 6 6 6 6 6 6 5 5 5 5 5 5 5 5 4 4 5 5 5 5 5 4 4 4 5 5 5 5 5 5 5 5 5 5 5 5 5 5
5 5 5 5 5 5 5 5 5 5 5 5 5 5 5 5 5 4 4 4 4 4 4 4 4 4 4 4 4 4 4 4 4 4 4 4 4 4 4 5 5 5 4
4 4 4 4 4 4 4 5 5 5 5 5 5 4 4 4 4 4 4 4 3 3 3 4 4 4 4 3 3 4 4 4 4 4 4 4 4 4 4 4 4 4 4
3 3 3 4 4 4 4 4 4 4 4 4 4 4 4 4 4 3 3 3 3 2 3 3 3 3 3 3 3 3 3 3 3 3 3 3 4 4 4 4 4 4 4
3 3 3 3 3 3 3 4 3 3 3 3 3 3 3 3 3 3 3 3 3 2 2 2 2 2 2 2 2 3 3 3 3 3 3 3 3 3 3 3 3 3 3
2 2 2 3 3 3 3 3 3 3 3 3 3 3 3 2 2 2 2 2 2 2 2 2 2 2 2 2 2 2 2 3 3 3 3 3 3 3 3 3 3 2 2
2 2 2 2 2 3 3 2 3 2 2 2 2 2 2 2 2 2 2 1 1 1 1 1 1 1 2 2 2 2 2 2 2 2 3 3 3 2 2 2 2 2 2
2 2 2 2 2 2 2 2 2 2 2 2 2 2 2 1 1 1 1 1 1 1 1 1 1 1 1 1 1 1 2 2 2 2 2 2 2 2 2 2 2 2 2
1 1 1 2 2 2 2 2 2 1 1 1 1 1 1 1 1 1 1 1 0 0 0 0 0 0 1 1 1 1 1 1 1 1 1 1 1 2 1 1 1 1 1
1 1 1 1 1 1 1 1 1 1 1 1 1 0 0 0 0 0 0 0 0 0 -0 -0 -0 -0 0 0 0 0 0 0 1 1 1 1 1 1 1 1 1 1 1
1 1 0 0 1 1 1 1 1 0 0 0 -0 -0 -0 -0 -0 0 0 0 -0 -0 -0 -1 -1 -1 -1 -0 -1 -1 -1 -1 -0 -0 -0 0 0 0 0 0 0 0 0
0 0 -0 -0 0 0 0 0 -0 -0 -0 -1 -1 -1 -1 -1 -0 -0 -0 -1 -1 -1 -1 -1 -1 -1 -1 -1 -1 -1 -1 -1 -1 -1 -1 -0 -0 -0 -0 -0 -0 -0 -0
-0 -0 -0 -0 -1 -0 -0 -0 -0 -1 -1 -1 -1 -1 -1 -1 -1 -1 -1 -1 -1 -1 -1 -1 -1 -1 -1 -1 -1 -1 -1 -1 -1 -1 -1 -1 -1 -1 -0 -0 -0 -1 -1
-1 -1 -1 -1 -1 -1 -1 -1 -1 -1 -1 -1 -2 -2 -2 -2 -2 -1 -1 -1 -1 -1 -2 -2 -2 -1 -1 -1 -1 -1 -1 -1 -2 -1 -1 -2 -1 -1 -1 -1 -1 -1 -1
-1 -1 -1 -1 -1 -1 -1 -1 -1 -2 -2 -2 -2 -2 -2 -2 -2 -2 -2 -2 -2 -2 -2 -2 -2 -2 -1 -1 -1 -1 -1 -2 -2 -2 -2 -2 -2 -2 -2 -2 -2 -2 -2
Wind_Speed
0 0 0 0 0 0 1 1 1 1 1 1 1 1 2 3 4 4 5 7 7 8 9 9 9 8 8 7 7 7 7 7 7 7 6 7 7 6 6 6 7 7 8
1 1 1 1 1 1 2 2 2 2 2 2 2 2 2 3 4 5 5 6 7 8 9 9 9 9 8 8 8 8 8 8 8 8 7 8 7 6 6 7 7 8 8
1 1 1 2 2 2 1 1 2 2 2 1 2 2 2 3 4 4 5 5 6 7 8 9 8 9 8 8 9 8 8 9 9 8 8 8 8 8 7 7 7 8 8
2 1 1 2 3 2 1 2 2 2 2 2 2 2 2 2 3 4 4 4 4 4 6 7 8 8 8 8 9 9 9 9 9 9 9 9 9 9 8 8 8 9 9
3 2 2 2 2 2 2 2 2 2 2 2 2 2 2 2 3 3 3 3 4 4 4 6 6 7 8 8 9 9 9 9 10 9 10 10 10 9 9 9 9 9 10
3 3 2 3 2 1 2 2 2 3 2 2 2 2 2 3 3 3 3 2 2 3 4 4 4 5 6 8 9 9 10 10 10 10 10 10 10 10 9 10 10 10 10
3 3 2 3 2 3 3 3 2 2 2 1 0 2 2 2 3 2 1 1 2 3 3 3 3 3 4 6 8 10 10 10 10 11 10 10 10 11 10 10 11 11 11
3 3 3 3 3 3 3 3 2 2 2 2 1 1 1 2 1 2 2 2 3 2 2 2 3 3 3 4 6 8 9 9 10 11 11 10 11 11 10 11 11 11 12
3 3 3 3 3 3 4 4 4 4 3 3 2 2 2 3 3 2 3 3 3 2 2 2 3 4 4 4 5 7 8 9 10 10 11 11 11 12 11 11 11 12 12
3 3 3 3 4 4 4 4 4 4 4 4 2 2 2 2 2 3 3 2 3 4 3 3 3 4 5 5 5 7 8 9 10 11 11 12 11 12 11 11 11 12 12
3 3 4 3 4 4 4 4 4 4 4 4 3 2 2 2 2 3 5 4 3 3 3 3 3 3 4 4 4 6 8 8 10 11 11 11 12 12 11 11 11 11 12
3 3 4 3 4 4 4 4 5 5 5 5 4 3 3 2 2 3 4 5 5 4 3 3 3 3 4 4 5 7 7 8 9 10 11 11 11 13 11 11 11 12 12
3 3 3 3 3 3 4 4 4 5 5 5 5 4 3 3 2 3 3 4 5 4 3 3 3 3 4 3 4 7 7 8 9 10 10 10 11 12 12 11 11 12 12
4 3 3 3 3 3 4 3 3 4 4 5 5 4 3 2 2 3 3 3 4 4 3 4 2 3 3 3 5 7 6 8 9 10 10 10 11 12 12 11 11 10 10
3 3 3 3 3 3 4 3 3 3 3 3 3 3 3 2 2 2 3 3 3 4 5 4 3 2 2 3 5 5 5 8 10 10 10 10 10 11 10 10 9 9 9
3 3 3 3 3 3 3 3 2 2 3 2 2 2 2 2 2 2 2 2 3 4 5 3 3 3 2 4 7 6 6 9 9 10 10 10 10 9 8 9 10 9 9
4 4 4 3 4 3 3 3 3 2 2 2 2 2 2 2 2 2 2 2 2 2 5 4 3 2 3 3 4 4 5 5 7 9 9 9 8 7 7 9 9 8 8
4 4 4 4 4 3 3 3 3 3 3 3 2 2 2 2 2 2 2 2 2 2 3 4 3 3 3 3 3 3 4 4 4 6 6 6 6 7 7 7 7 7 7
4 4 4 4 4 3 3 3 3 3 3 3 3 2 2 2 2 2 2 2 2 2 2 3 3 3 3 3 3 3 3 3 4 5 4 4 4 4 5 6 6 7 7
4 4 3 3 3 3 3 3 2 2 2 2 2 2 2 2 3 2 2 2 2 2 1 2 3 3 3 2 2 2 3 2 3 4 3 3 4 5 5 6 6 7 7
3 2 2 2 2 2 2 2 2 2 2 2 1 1 2 2 3 2 2 2 2 1 1 2 2 2 2 2 2 2 3 3 3 2 2 2 2 3 4 5 6 6 7
2 1 1 2 2 2 3 3 1 2 2 1 1 1 1 2 2 2 2 2 1 1 2 2 2 3 3 2 2 2 2 2 3 1 1 2 2 2 3 3 6 7 7
0 0 1 1 1 2 2 2 1 1 1 1 1 1 1 1 1 1 2 3 2 3 3 2 2 3 3 2 1 2 2 2 3 2 2 2 1 2 3 4 7 7 7
0 0 0 0 0 1 2 1 1 1 1 0 1 1 1 0 1 1 1 1 1 2 3 2 2 3 2 1 2 2 2 2 1 1 0 1 2 2 3 4 6 7 7
1 1 0 1 1 2 2 2 2 2 1 0 0 0 1 1 1 1 1 1 2 2 4 3 3 2 3 2 1 1 0 1 1 1 1 1 1 2 2 2 4 6 7
1 1 1 1 1 1 2 2 3 2 2 1 1 0 1 0 0 1 0 1 1 2 2 3 3 3 3 2 2 1 1 0 0 1 1 1 0 2 2 2 2 4 6
Wind_Direction
234 219 168 158 314 255 206 196 169 170 177 197 218 218 236 248 250 252 255 262 265 263 259 256 256 256 256 252 252 251 254 259 263 271 281 270 271 272 282 291 294 296 296
255 232 216 217 241 241 231 224 208 195 198 205 219 233 240 246 248 253 256 260 263 262 261 261 259 258 258 258 256 257 257 259 265 268 280 275 269 273 274 283 290 293 298
259 253 247 230 238 245 238 235 212 189 191 210 238 243 248 250 248 248 252 251 256 262 262 261 264 262 259 258 259 261 263 265 264 269 271 277 267 267 266 275 281 289 292
269 261 242 247 254 235 220 204 208 211 218 225 246 252 256 264 261 255 247 242 241 251 259 264 264 265 269 265 260 260 263 269 270 271 269 274 267 263 264 270 277 284 289
276 265 256 259 261 232 209 220 224 218 229 236 247 256 257 263 266 262 254 244 235 239 243 258 264 267 269 272 271 264 263 266 270 272 275 271 272 264 265 269 276 280 284
273 266 261 263 248 224 224 214 235 226 223 223 264 287 277 269 259 247 248 243 243 245 236 240 248 261 266 271 275 276 269 265 266 271 277 272 274 267 265 269 275 279 282
272 250 262 256 237 224 236 231 235 227 217 180 22 321 310 274 256 249 249 254 256 248 232 233 230 235 250 268 273 272 272 273 268 270 272 273 275 272 264 269 274 278 280
278 258 243 241 236 231 239 236 231 223 224 192 173 336 303 300 284 265 259 252 255 249 250 245 230 233 240 250 265 268 269 274 278 274 272 274 277 275 265 267 271 275 279
276 262 246 244 239 230 236 236 224 217 223 222 204 187 206 243 302 267 255 250 251 260 256 230 237 240 241 245 253 259 269 274 276 280 279 276 275 274 271 271 274 276 280
275 271 259 244 238 234 239 242 235 236 219 220 236 238 233 222 245 282 281 260 258 256 249 255 249 246 244 239 244 254 264 274 277 276 280 281 275 272 270 274 276 278 282
271 272 265 251 245 246 242 239 246 240 231 224 220 235 267 280 252 251 275 281 279 263 251 245 247 247 248 246 240 250 264 271 276 276 278 286 287 278 272 275 279 284 286
269 262 265 252 248 250 248 242 239 240 235 228 226 221 229 232 244 248 262 278 281 281 272 258 252 249 242 246 250 260 267 271 276 276 279 285 290 289 275 275 280 284 287
272 268 268 259 256 253 258 254 247 246 237 227 227 233 233 238 244 255 254 273 284 290 278 270 252 243 242 237 257 265 268 272 275 275 279 283 287 294 285 279 281 284 287
258 254 254 257 264 267 265 259 260 260 248 233 232 233 236 237 237 243 244 258 283 288 279 265 275 247 243 240 259 270 270 272 276 277 281 282 286 292 290 283 282 286 289
259 244 241 249 258 260 258 251 256 264 255 242 231 234 245 252 249 257 248 239 242 273 279 266 266 269 254 257 270 271 267 273 277 278 280 280 280 285 287 289 285 288 292
253 246 239 241 249 251 255 252 257 255 249 247 228 227 252 258 256 261 251 260 257 259 277 280 270 281 282 289 281 282 272 278 279 277 277 276 277 279 284 292 289 289 295
250 250 246 244 248 253 255 253 254 243 247 248 232 221 244 258 250 259 258 259 263 261 272 293 297 304 298 298 297 290 282 276 279 279 279 277 273 279 285 290 289 295 295
244 241 242 242 245 247 242 240 251 245 238 233 224 216 231 253 249 253 254 259 257 257 257 277 294 306 304 306 311 306 308 295 288 293 298 286 283 286 286 289 297 304 307
246 240 239 240 245 242 236 235 239 240 235 233 224 216 225 228 251 257 255 255 255 262 256 266 290 303 306 317 329 328 330 327 314 309 311 317 321 327 327 319 317 316 318
242 240 242 242 247 245 232 228 235 232 218 236 230 218 221 226 240 241 242 239 236 247 264 269 281 300 307 323 338 334 334 341 324 328 334 330 342 347 340 333 333 332 334
248 241 252 261 258 247 230 214 215 196 202 219 221 214 230 244 256 248 244 229 216 224 247 274 291 310 313 321 312 321 321 331 320 315 346 348 352 353 343 338 339 341 342
245 233 242 255 269 267 258 266 263 179 184 190 202 217 249 260 277 297 310 293 250 231 243 270 292 295 299 301 322 312 321 333 316 342 34 334 355 331 333 340 346 348 347
221 255 264 260 271 263 270 275 284 144 152 194 199 198 275 308 353 16 349 350 339 311 299 290 276 284 287 280 273 299 299 299 294 306 339 318 350 329 331 342 352 350 352
104 27 290 322 300 279 301 302 351 92 109 158 201 184 165 33 335 359 25 8 338 326 317 317 273 278 285 259 235 255 269 317 330 328 33 352 351 342 344 341 355 358 5
56 32 9 48 340 309 320 328 4 106 103 89 106 144 139 167 269 330 59 47 5 350 339 342 347 349 346 340 4 72 20 25 350 351 52 101 13 3 356 351 2 15 16
49 28 19 30 12 323 334 6 27 107 111 87 52 59 11 19 298 348 67 127 332 328 352 3 16 22 31 30 24 46 143 110 314 319 20 69 352 359 353 355 357 7 13
Height
1497 1497 1498 1499 1499 1500 1501 1501 1502 1502 1503 1504 1504 1504 1505 1506 1506 1506 1506 1507 1507 1507 1507 1507 1507 1507 1507 1507 1507 1506 1507 1507 1506 1506 1506 1506 1506 1506 1506 1505 1505 1505 1504
1494 1495 1495 1496 1496 1497 1498 1498 1499 1499 1500 1500 1500 1501 1502 1502 1502 1503 1503 1503 1503 1503 1503 1503 1503 1503 1503 1503 1503 1503 1503 1503 1503 1503 1502 1502 1502 1502 1502 1502 1501 1501 1501
1491 1491 1492 1492 1493 1493 1494 1495 1496 1496 1496 1496 1497 1497 1498 1498 1498 1499 1499 1499 1499 1499 1499 1499 1499 1499 1499 1499 1499 1499 1499 1499 1499 1499 1498 1498 1498 1498 1497 1497 1497 1497 1496
1488 1488 1489 1489 1489 1490 1491 1491 1492 1492 1492 1492 1493 1493 1494 1494 1494 1495 1495 1495 1495 1495 1495 1495 1495 1495 1495 1495 1495 1495 1495 1495 1494 1494 1494 1494 1494 1493 1493 1493 1493 1492 1492
1485 1485 1485 1486 1486 1486 1487 1487 1488 1488 1488 1488 1489 1489 1489 1490 1490 1491 1491 1491 1491 1491 1491 1491 1491 1490 1490 1490 1490 1490 1490 1490 1490 1490 1490 1489 1489 1489 1489 1489 1488 1488 1487
1482 1482 1482 1482 1482 1483 1483 1483 1484 1484 1485 1485 1485 1485 1485 1486 1486 1486 1487 1487 1486 1486 1486 1486 1486 1486 1486 1486 1486 1485 1485 1485 1485 1485 1485 1485 1485 1485 1485 1484 1484 1484 1483
1478 1478 1478 1478 1478 1479 1479 1480 1480 1480 1480 1481 1481 1480 1480 1481 1481 1481 1482 1482 1482 1482 1482 1482 1481 1481 1480 1480 1480 1480 1480 1480 1480 1480 1480 1480 1480 1480 1480 1480 1480 1479 1479
1474 1474 1474 1474 1474 1475 1475 1476 1476 1476 1476 1477 1477 1477 1476 1477 1476 1477 1477 1477 1477 1478 1478 1477 1477 1476 1476 1475 1475 1475 1475 1474 1474 1475 1475 1475 1475 1475 1475 1475 1475 1474 1474
1470 1470 1470 1470 1470 1471 1471 1471 1472 1472 1472 1473 1474 1475 1474 1472 1471 1471 1471 1472 1472 1472 1472 1472 1472 1472 1471 1470 1470 1469 1469 1469 1469 1469 1470 1470 1470 1470 1470 1470 1470 1469 1469
1466 1466 1466 1466 1466 1466 1467 1467 1468 1468 1468 1468 1469 1470 1471 1470 1469 1466 1466 1467 1467 1467 1467 1467 1467 1466 1466 1465 1465 1464 1464 1463 1464 1464 1464 1464 1464 1465 1465 1465 1465 1464 1464
1461 1461 1461 1462 1462 1462 1462 1463 1463 1463 1463 1463 1463 1464 1464 1465 1464 1463 1460 1460 1461 1461 1461 1461 1461 1461 1460 1460 1459 1459 1458 1458 1458 1458 1458 1458 1459 1459 1459 1459 1459 1459 1458
1456 1456 1456 1457 1457 1457 1458 1458 1458 1458 1458 1458 1458 1459 1459 1459 1459 1459 1457 1455 1455 1455 1456 1456 1456 1455 1455 1454 1453 1453 1453 1453 1453 1453 1453 1453 1453 1453 1453 1454 1454 1453 1453
1450 1451 1452 1452 1452 1453 1453 1453 1453 1453 1453 1453 1453 1454 1454 1454 1455 1455 1454 1452 1451 1449 1450 1450 1450 1450 1449 1449 1448 1448 1447 1447 1447 1448 1448 1448 1448 1447 1448 1448 1448 1448 1448
1445 1446 1447 1447 1448 1448 1448 1448 1449 1449 1448 1448 1448 1449 1449 1449 1450 1450 1450 1449 1447 1445 1444 1444 1444 1444 1444 1443 1443 1442 1442 1442 1442 1442 1442 1442 1442 1442 1442 1442 1442 1442 1442
1441 1442 1442 1442 1443 1443 1444 1444 1444 1444 1444 1444 1443 1444 1444 1444 1445 1445 1446 1446 1445 1441 1438 1439 1439 1439 1439 1439 1438 1437 1437 1436 1437 1437 1436 1436 1436 1437 1437 1436 1437 1436 1436
1437 1437 1437 1438 1438 1439 1440 1440 1439 1439 1440 1440 1439 1439 1439 1440 1440 1440 1440 1441 1441 1439 1436 1435 1435 1435 1434 1434 1433 1432 1432 1431 1431 1431 1431 1431 1431 1431 1431 1431 1431 1431 1431
1433 1433 1433 1433 1434 1434 1435 1435 1435 1435 1435 1435 1435 1435 1435 1435 1435 1435 1436 1436 1436 1435 1434 1432 1432 1431 1430 1429 1428 1428 1428 1427 1426 1427 1426 1426 1426 1426 1426 1426 1426 1425 1425
1429 1429 1429 1430 1430 1430 1430 1430 1430 1431 1431 1431 1431 1431 1431 1431 1431 1431 1432 1432 1431 1431 1431 1429 1428 1427 1426 1425 1424 1424 1423 1422 1423 1422 1422 1422 1422 1422 1421 1421 1420 1420 1419
1425 1425 1426 1426 1426 1426 1426 1426 1427 1427 1427 1427 1428 1427 1427 1428 1427 1427 1427 1427 1427 1427 1427 1426 1424 1424 1423 1422 1421 1420 1419 1418 1419 1419 1418 1418 1417 1417 1416 1416 1416 1415 1415
1421 1421 1422 1422 1422 1422 1422 1422 1422 1423 1423 1424 1424 1424 1424 1424 1424 1424 1423 1423 1424 1424 1423 1423 1421 1420 1419 1419 1418 1416 1415 1415 1415 1415 1415 1414 1414 1413 1413 1413 1412 1411 1411
1417 1417 1418 1418 1418 1418 1418 1418 1419 1419 1420 1420 1420 1421 1421 1421 1421 1421 1421 1420 1420 1420 1420 1419 1418 1417 1416 1416 1415 1414 1413 1413 1413 1413 1411 1411 1411 1410 1411 1410 1410 1409 1408
1414 1414 1414 1414 1414 1414 1415 1415 1416 1416 1416 1417 1417 1418 1418 1418 1418 1418 1418 1418 1418 1418 1417 1416 1415 1415 1414 1414 1413 1412 1412 1410 1410 1411 1409 1408 1409 1408 1408 1408 1407 1405 1405
1411 1411 1411 1411 1411 1411 1411 1412 1413 1413 1414 1414 1414 1414 1414 1415 1415 1415 1415 1415 1415 1415 1415 1415 1413 1413 1412 1412 1411 1410 1410 1409 1408 1408 1408 1405 1406 1405 1405 1405 1404 1403 1403
1408 1409 1409 1409 1409 1409 1409 1410 1410 1410 1411 1411 1412 1412 1412 1412 1412 1413 1412 1412 1412 1412 1412 1412 1411 1411 1411 1410 1410 1409 1409 1408 1407 1407 1407 1404 1404 1404 1404 1403 1402 1402 1401
1406 1407 1407 1406 1407 1407 1407 1408 1408 1407 1408 1408 1409 1410 1409 1409 1410 1411 1411 1410 1410 1409 1410 1409 1409 1409 1409 1408 1408 1408 1407 1406 1405 1405 1406 1404 1403 1402 1402 1401 1402 1401 1400
1405 1405 1405 1405 1405 1405 1406 1406 1406 1405 1405 1406 1407 1407 1408 1408 1409 1410 1409 1408 1408 1407 1407 1407 1407 1407 1406 1406 1407 1407 1406 1405 1404 1404 1404 1404 1402 1401 1399 1400 1400 1400 1398